EW9755 Weather Reports


Display with metric or nautical units.
time (UTC)temp
F
wind
direction
speed
MPH
gust
MPH
rain 1hr
in
rain 24hr
in
rain mn
in
humidity
%
barometer
mb
20260506123432 77 125 9.0 12.0 0.00 0.00 0.00 97 1009.7
20260506122542 77 124 8.0 12.0 0.00 0.00 0.00 96 1009.7
20260506122113 77 126 10.0 14.0 0.00 0.00 0.00 96 1009.7
20260506121434 77 128 9.0 16.0 0.00 0.00 0.00 96 1009.3
20260506120540 77 122 12.0 14.0 0.00 0.00 0.00 96 1009.3
20260506115902 77 125 9.0 16.0 0.00 0.00 0.00 96 1009.3
20260506115221 77 123 12.0 16.0 0.00 0.00 0.00 96 1009.3
20260506114540 77 122 13.0 15.0 0.00 0.00 0.00 96 1009.0
20260506113900 77 123 12.0 14.0 0.00 0.00 0.00 96 1009.3
20260506113222 77 122 11.0 14.0 0.00 0.00 0.00 96 1009.3
20260506112540 77 123 9.0 14.0 0.00 0.00 0.00 96 1009.3
20260506112114 77 123 10.0 14.0 0.00 0.00 0.00 96 1009.0
20260506111429 77 117 11.0 16.0 0.00 0.00 0.00 96 1009.0
20260506110540 77 120 10.0 16.0 0.00 0.00 0.00 96 1009.0
20260506105900 77 121 13.0 16.0 0.00 0.00 0.00 96 1009.0
20260506105431 77 121 10.0 16.0 0.00 0.00 0.00 96 1009.0
20260506104752 77 117 12.0 17.0 0.00 0.00 0.00 96 1009.0
20260506103900 77 123 13.0 17.0 0.00 0.00 0.00 96 1009.0
20260506103220 77 121 11.0 13.0 0.00 0.00 0.00 96 1009.0
20260506102540 77 132 10.0 13.0 0.00 0.00 0.00 96 1009.0
20260506101900 77 127 11.0 15.0 0.00 0.00 0.00 96 1009.0
20260506101220 77 126 10.0 15.0 0.00 0.00 0.00 96 1009.0
20260506100540 77 127 10.0 14.0 0.00 0.00 0.00 95 1008.6
20260506095901 77 121 8.0 17.0 0.00 0.00 0.00 95 1008.6
20260506095220 77 117 13.0 17.0 0.00 0.00 0.00 96 1008.6
20260506094540 77 120 14.0 18.0 0.00 0.00 0.00 96 1008.6
20260506094113 77 117 14.0 18.0 0.00 0.00 0.00 96 1008.6
20260506093220 77 119 14.0 17.0 0.00 0.00 0.00 96 1008.6
20260506092540 77 115 12.0 16.0 0.00 0.00 0.00 96 1008.6
20260506091900 77 117 12.0 17.0 0.00 0.00 0.00 96 1008.6
20260506091220 77 113 12.0 17.0 0.00 0.00 0.00 96 1008.6
20260506090540 77 116 14.0 17.0 0.00 0.00 0.00 96 1008.6
20260506085900 77 118 13.0 17.0 0.00 0.00 0.00 96 1008.6
20260506085220 77 115 14.0 17.0 0.00 0.00 0.00 96 1008.6
20260506084753 77 114 10.0 14.0 0.00 0.00 0.00 96 1008.6
20260506083900 77 119 9.0 12.0 0.00 0.00 0.00 97 1009.0
20260506083220 77 128 9.0 13.0 0.00 0.00 0.00 97 1009.0
20260506082750 77 133 9.0 12.0 0.00 0.00 0.00 97 1009.0
20260506081900 77 129 10.0 12.0 0.00 0.00 0.00 97 1009.3
20260506081220 77 124 9.0 12.0 0.00 0.00 0.00 97 1009.3
20260506080540 77 129 10.0 13.0 0.00 0.00 0.00 97 1009.0
20260506073220 77 136 8.0 12.0 0.00 0.00 0.00 96 1009.7
20260506072750 77 138 7.0 12.0 0.00 0.00 0.00 96 1009.7
20260506071900 77 134 7.0 12.0 0.00 0.00 0.00 96 1009.7
20260506071220 77 138 8.0 10.0 0.00 0.00 0.00 96 1009.7
20260506070540 77 139 7.0 13.0 0.00 0.00 0.00 96 1010.0
20260506061900 77 131 12.0 16.0 0.00 0.00 0.00 96 1009.7
20260506061220 77 127 11.0 19.0 0.00 0.00 0.00 96 1009.7
20260506060540 77 127 13.0 19.0 0.00 0.00 0.00 96 1009.7
20260506051221 77 128 14.0 20.0 0.00 0.00 0.00 95 1009.3
20260506050540 77 124 14.0 20.0 0.00 0.00 0.00 95 1009.3
20260506044540 77 127 15.0 23.0 0.00 0.00 0.00 95 1009.7
20260506044111 77 126 16.0 23.0 0.00 0.00 0.00 94 1009.7
20260506043220 77 128 16.0 22.0 0.00 0.00 0.00 94 1009.3
20260506042540 77 127 16.0 20.0 0.00 0.00 0.00 94 1009.3
20260506041900 77 126 15.0 22.0 0.00 0.00 0.00 94 1009.7
20260506041220 77 126 14.0 20.0 0.00 0.00 0.00 94 1009.3
20260506040540 77 128 15.0 22.0 0.00 0.00 0.00 94 1009.7
20260506035900 77 130 18.0 24.0 0.00 0.00 0.00 94 1009.7
20260506035220 77 128 15.0 24.0 0.00 0.00 0.00 94 1009.7
20260506034751 77 127 14.0 22.0 0.00 0.00 0.00 94 1009.7
20260506033900 77 128 16.0 22.0 0.00 0.00 0.00 94 1009.3
20260506033220 77 127 15.0 22.0 0.00 0.00 0.00 94 1009.7
20260506032540 77 126 16.0 21.0 0.00 0.00 0.00 94 1009.3
20260506031900 77 125 15.0 22.0 0.00 0.00 0.00 94 1009.3
20260506031220 77 127 15.0 22.0 0.00 0.00 0.00 94 1009.3
20260506030540 77 124 16.0 22.0 0.00 0.00 0.00 94 1009.3
20260506025900 77 127 16.0 23.0 0.00 0.00 0.00 94 1009.3
20260506025431 77 129 17.0 21.0 0.00 0.00 0.00 94 1009.3
20260506024540 77 130 17.0 21.0 0.00 0.00 0.00 94 1009.0
20260506023900 77 127 17.0 22.0 0.00 0.00 0.00 94 1009.0
20260506023220 77 130 16.0 24.0 0.00 0.00 0.00 94 1009.0
20260506022540 77 129 18.0 22.0 0.00 0.00 0.00 94 1009.0
20260506021900 77 128 17.0 22.0 0.00 0.00 0.00 94 1008.6
20260506021220 77 129 16.0 24.0 0.00 0.00 0.00 94 1008.6
20260506020540 77 129 18.0 24.0 0.00 0.00 0.00 94 1008.6
20260506015900 77 127 17.0 23.0 0.00 0.00 0.00 94 1008.6
20260506015220 77 129 18.0 23.0 0.00 0.00 0.00 94 1008.3
20260506014540 77 127 16.0 23.0 0.00 0.00 0.00 94 1008.3
20260506013900 77 128 15.0 23.0 0.00 0.00 0.00 94 1008.3
20260506013220 77 123 18.0 23.0 0.00 0.00 0.00 94 1008.0
20260506012540 77 122 15.0 21.0 0.00 0.00 0.00 94 1008.0
20260506011902 77 122 15.0 21.0 0.00 0.00 0.00 94 1008.0
20260506011220 77 122 13.0 18.0 0.00 0.00 0.00 94 1008.0
20260506010540 77 125 12.0 20.0 0.00 0.00 0.00 93 1007.6
20260506010112 77 124 13.0 18.0 0.00 0.00 0.00 93 1007.6
20260506005432 77 125 13.0 19.0 0.00 0.00 0.00 93 1007.6
20260506004541 77 125 15.0 20.0 0.00 0.00 0.00 93 1007.6
20260506003900 77 127 16.0 22.0 0.00 0.00 0.00 93 1007.6
20260506003220 77 130 18.0 21.0 0.00 0.00 0.00 93 1007.6
20260506002540 77 130 14.0 22.0 0.00 0.00 0.00 92 1007.6
20260506001900 77 128 17.0 22.0 0.00 0.00 0.00 92 1007.6
20260506001222 77 133 16.0 22.0 0.00 0.00 0.00 92 1008.0
20260506000540 78 129 16.0 22.0 0.00 0.00 0.00 92 1008.0
20260506000112 78 126 16.0 22.0 0.00 0.00 0.00 92 1008.0
20260505235433 78 129 16.0 21.0 0.00 0.00 0.00 92 1008.0
20260505234754 78 130 16.0 21.0 0.00 0.00 0.00 92 1007.6
20260505233900 78 129 16.0 21.0 0.00 0.00 0.00 91 1007.6
20260505233220 78 133 18.0 21.0 0.00 0.00 0.00 91 1007.6
20260505232540 78 131 18.0 22.0 0.00 0.00 0.00 91 1008.0
20260505231900 78 135 16.0 21.0 0.00 0.00 0.00 90 1008.3
20260505231220 78 132 15.0 22.0 0.00 0.00 0.00 90 1008.3
20260505230540 78 132 15.0 22.0 0.00 0.00 0.00 89 1008.0
20260505230113 78 137 15.0 22.0 0.00 0.00 0.00 89 1008.3
20260505225220 78 135 16.0 21.0 0.00 0.00 0.00 89 1008.3
20260505224542 78 141 15.0 23.0 0.00 0.00 0.00 90 1008.3
20260505223900 78 140 17.0 23.0 0.00 0.00 0.00 89 1008.3
20260505223430 78 142 19.0 23.0 0.00 0.00 0.00 89 1008.3
20260505222540 78 132 15.0 19.0 0.00 0.00 0.00 89 1008.3
20260505221900 78 137 10.0 20.0 0.00 0.00 0.00 90 1008.3
20260505221220 78 137 16.0 23.0 0.00 0.00 0.00 88 1008.3
20260505220540 79 135 15.0 23.0 0.00 0.00 0.00 88 1008.3
20260505215900 78 145 19.0 23.0 0.00 0.00 0.00 89 1008.3
20260505215220 79 136 15.0 22.0 0.00 0.00 0.00 88 1008.3
20260505214540 78 148 17.0 22.0 0.00 0.00 0.00 88 1008.3
20260505213900 79 143 16.0 23.0 0.00 0.00 0.00 88 1008.3
20260505213220 79 139 19.0 23.0 0.00 0.00 0.00 87 1008.6
20260505212540 79 142 16.0 20.0 0.00 0.00 0.00 86 1008.6
20260505211900 79 147 12.0 21.0 0.00 0.00 0.00 87 1009.0
20260505211220 79 154 16.0 22.0 0.00 0.00 0.00 87 1009.0
20260505210540 78 146 17.0 22.0 0.00 0.00 0.00 89 1009.0
20260505205900 79 142 17.0 21.0 0.00 0.00 0.00 89 1009.0
20260505205220 79 143 12.0 20.0 0.00 0.00 0.00 88 1009.0
20260505204540 78 144 15.0 21.0 0.00 0.00 0.00 88 1009.3
20260505203900 78 138 14.0 23.0 0.00 0.00 0.00 89 1009.3
20260505203220 78 146 15.0 24.0 0.00 0.00 0.00 90 1009.7
20260505202540 78 145 18.0 25.0 0.00 0.00 0.00 89 1009.7
20260505201900 78 155 17.0 25.0 0.00 0.00 0.00 89 1009.7
20260505201220 78 135 17.0 22.0 0.00 0.00 0.00 90 1009.3
20260505200540 78 150 16.0 24.0 0.00 0.00 0.00 90 1009.7
20260505195900 78 149 17.0 24.0 0.00 0.00 0.00 88 1009.7
20260505195221 78 146 19.0 25.0 0.00 0.00 0.00 89 1009.7
20260505194751 78 150 20.0 27.0 0.00 0.00 0.00 89 1009.7
20260505193900 78 151 20.0 27.0 0.00 0.00 0.00 88 1009.7
20260505193220 78 146 20.0 26.0 0.00 0.00 0.00 89 1009.7
20260505192540 78 145 18.0 25.0 0.00 0.00 0.00 87 1009.7
20260505191900 79 143 18.0 24.0 0.00 0.00 0.00 88 1009.7
20260505191220 79 141 18.0 23.0 0.00 0.00 0.00 86 1009.7
20260505190750 78 150 20.0 24.0 0.00 0.00 0.00 89 1009.7
20260505185900 78 150 17.0 24.0 0.00 0.00 0.00 87 1010.0
20260505185220 78 145 17.0 26.0 0.00 0.00 0.00 89 1010.0
20260505184540 78 147 21.0 26.0 0.00 0.00 0.00 88 1009.7
20260505184112 78 145 22.0 27.0 0.00 0.00 0.00 89 1010.0
20260505183220 78 143 20.0 27.0 0.00 0.00 0.00 88 1010.0
20260505182540 78 146 19.0 27.0 0.00 0.00 0.00 88 1010.0
20260505181900 78 148 22.0 27.0 0.00 0.00 0.00 86 1009.7
20260505181220 78 143 20.0 26.0 0.00 0.00 0.00 86 1010.0
20260505180540 78 151 20.0 27.0 0.00 0.00 0.00 86 1010.0
20260505175900 79 145 18.0 26.0 0.00 0.00 0.00 86 1010.0
20260505175220 79 143 15.0 26.0 0.00 0.00 0.00 85 1010.3
20260505174540 79 142 18.0 26.0 0.00 0.00 0.00 86 1010.3
20260505173900 78 140 17.0 25.0 0.00 0.00 0.00 87 1010.3
20260505173220 78 137 18.0 28.0 0.00 0.00 0.00 88 1010.3
20260505172540 78 142 16.0 24.0 0.00 0.00 0.00 86 1010.3
20260505171900 79 135 18.0 23.0 0.00 0.00 0.00 86 1010.3
20260505171430 79 142 16.0 22.0 0.00 0.00 0.00 87 1010.3
20260505170542 78 143 16.0 22.0 0.00 0.00 0.00 87 1010.3
20260505165902 78 140 14.0 24.0 0.00 0.00 0.00 87 1010.3
20260505165432 78 138 15.0 24.0 0.00 0.00 0.00 88 1010.7
20260505164753 78 149 15.0 24.0 0.00 0.00 0.00 90 1010.7
20260505163900 77 149 18.0 26.0 0.00 0.00 0.00 89 1010.3
20260505163220 77 152 16.0 22.0 0.00 0.00 0.00 90 1010.3
20260505162540 77 151 15.0 23.0 0.00 0.00 0.00 89 1010.3
20260505162110 77 151 15.0 24.0 0.00 0.00 0.00 90 1010.3
20260505161431 78 149 17.0 24.0 0.00 0.00 0.00 89 1010.3
20260505160540 77 144 20.0 24.0 0.00 0.00 0.00 89 1010.3
20260505153220 77 151 19.0 25.0 0.00 0.00 0.00 90 1010.3
20260505152540 77 145 21.0 26.0 0.00 0.00 0.00 89 1010.3
20260505151900 77 151 17.0 24.0 0.00 0.00 0.00 90 1010.3
20260505151220 77 147 17.0 22.0 0.00 0.00 0.00 90 1010.3
20260505150540 77 149 17.0 21.0 0.00 0.00 0.00 89 1010.3
20260505150113 77 152 14.0 22.0 0.00 0.00 0.00 89 1010.3
20260505140540 76 147 20.0 25.0 0.00 0.00 0.00 90 1010.0
20260505130109 76 144 15.0 22.0 0.00 0.00 0.00 90 1009.7
20260505124540 75 146 18.0 24.0 0.00 0.00 0.00 90 1009.7
20260505124111 75 146 19.0 24.0 0.00 0.00 0.00 90 1009.3